Regional Weather Roundup
Issued by NWS Grand Forks, ND

Home | Current Version | Previous Version | Graphics & Text | Print | Product List | Glossary On
Versions: 1 2 3 4 5 6 7 8 9 10 11 12 13 14 15 16 17 18 19 20 21 22 23 24 25 26 27 28 29 30 31 32 33 34 35 36 37 38 39 40 41 42 43 44 45 46 47 48 49 50
000
ASUS43 KFGF 251210
RWRFGF
PRAIRIE TO PINES  WEATHER ROUNDUP
NATIONAL WEATHER SERVICE EASTERN NORTH DAKOTA/GRAND FORKS ND
700 AM CDT SUN JUN 25 2017

 **SATELLITE DATA USED TO AUGMENT SKY COVER AT AUTOMATED STATIONS**
 *****  WEATHER ACROSS EASTERN NORTH DAKOTA  *****

CITY           SKY/WX    TMP DP  RH WIND       PRES   REMARKS
GRAND FORKS    FAIR      47  44  90 W6        30.22R
6HR MIN TEMP:  41; 6HR MAX TEMP:  49;

GRAND FRKS AFB FAIR      48  42  80 NW5       30.23R
DEVILS LAKE    FAIR      46  44  93 NW3       30.25S
6HR MIN TEMP:  40; 6HR MAX TEMP:  46;

FARGO          FAIR      49  43  80 NW9       30.22R
WAHPETON ARPT  FAIR      46  41  81 NW8       30.23S
$$

 ***** WEATHER ACROSS CENTRAL AND WESTERN NORTH DAKOTA  *****

CITY           SKY/WX    TMP DP  RH WIND       PRES   REMARKS
BISMARCK       LGT RAIN  47  40  76 CALM      30.30R
6HR MIN TEMP:  41; 6HR MAX TEMP:  48; 6HR PCP: TRACE;

MINOT          FAIR      53  41  63 SW7       30.24S
6HR MIN TEMP:  47; 6HR MAX TEMP:  53;

JAMESTOWN      FAIR      48  44  86 W6        30.25R
6HR MIN TEMP:  43; 6HR MAX TEMP:  50;

MINOT AFB      MOCLDY    48  45  87 CALM      30.23F
GARRISON         N/A     50  46  86 W7        30.27R
WILLISTON      LGT RAIN  52  42  69 CALM      30.28R
6HR MIN TEMP:  46; 6HR MAX TEMP:  53; 6HR PCP: TRACE;

DICKINSON      FAIR      44  33  65 SW8       30.26S
6HR MIN TEMP:  38; 6HR MAX TEMP:  47;

HETTINGER      FAIR      41  32  70 SW6       30.32S
6HR MIN TEMP:  32; 6HR MAX TEMP:  42;

$$

 *****  OTHER AIRPORT OBSERVATIONS IN OUR AREA  *****

CITY           SKY/WX    TMP DP  RH WIND       PRES   REMARKS
WALHALLA       NOT AVBL
GRAFTON AIRPOR FAIR      48  43  81 NW8       30.24R
VALLEY CITY AR FAIR      46  46 100 NW6       30.27R
CANDO          NOT AVBL
CAVALIER APRT  NOT AVBL
GWINNER        SUNNY     50  45  81 NW7       30.26R
SHEYENNE NWR     N/A     48  46  93 NW6       29.95S
ROLLA            N/A     43  43 100 N6        30.25S
 ***** THE ABOVE OBSERVATIONS ARE NON NWS ARE NOT QUALITY
       CONTROLLED AND MAY MIS-REPORT RAIN FOR SNOW...
$$

  *****  WEATHER ACROSS NORTHERN MINNESOTA  *****

CITY           SKY/WX    TMP DP  RH WIND       PRES   REMARKS
FLAG ISLAND    CLOUDY    52  48  87 W10       30.13R
WARROAD        FAIR      46  43  87 NW9       30.16R
ROSEAU         FAIR      46  41  81 NW6       30.17S
HALLOCK        FAIR      45  43  93 NW7       30.21R
THF RVR FALLS  FAIR      46  42  86 NW10      30.20R
6HR MIN TEMP:  44; 6HR MAX TEMP:  50;

BAUDETTE       CLOUDY    50  48  93 NW5       30.13R
6HR MIN TEMP:  50; 6HR MAX TEMP:  53; 6HR PCP:  0.21;

WASKISH        LGT RAIN  48  46  93 N5        30.14R
CROOKSTON      FAIR      45  43  93 NW5       30.22R
STEPHEN NDAWN    N/A     46  43  87 NW7         N/A
GREENBUSH NDAW   N/A     45  43  93 NW7         N/A
$$
  *****  WEATHER ACROSS CENTRAL AND WEST MINNESOTA  *****

CITY           SKY/WX    TMP DP  RH WIND       PRES   REMARKS
FOSSTON        FAIR      46  45  93 NW9       30.19R
BEMIDJI        CLOUDY    47  46  95 NW12      30.14S
PARK RAPIDS    PTSUNNY   50  43  77 NW13      30.14R
6HR MIN TEMP:  50; 6HR MAX TEMP:  51; 6HR PCP: TRACE;

ELBOW LAKE     FAIR      47  43  86 NW10      30.21S
6HR MIN TEMP:  46; 6HR MAX TEMP:  50;

WADENA         CLOUDY    48  46  93 NW9       30.16R
DETROIT LAKES  FAIR      46  43  87 NW13      30.20R
MOORHEAD       FAIR      48  43  81 NW7       30.23R
FERGUS FALLS   FAIR      46  43  87 NW10      30.20S
MORRIS MN      FAIR      50  43  76 NW15      30.21R
STAPLES        CLOUDY    50  46  87 NW13G20   30.14R
$$
  *****  WEATHER ELSEWHERE ACROSS MINNESOTA  *****

CITY           SKY/WX    TMP DP  RH WIND       PRES   REMARKS
DULUTH         CLOUDY    52  51  97 NW7       30.02S
6HR MIN TEMP:  52; 6HR MAX TEMP:  53;

INTRNTL FALLS  LGT RAIN  50  48  93 NW10      30.08R
6HR MIN TEMP:  50; 6HR MAX TEMP:  54; 6HR PCP:  0.09;

ELY            RAIN      52  52 100 CALM      30.02R
CLOQUET        CLOUDY    54  50  87 W5        30.04R
WHEATON        FAIR      50  43  76 W8          N/A
BRAINERD       LGT RAIN  51  49  92 NW14      30.11R FOG
6HR MIN TEMP:  51; 6HR MAX TEMP:  53; 6HR PCP:  0.01;

HIBBING        CLOUDY    53  51  93 NW7       30.04R
6HR MIN TEMP:  49; 6HR MAX TEMP:  53;

ALEXANDRIA     FAIR      50  45  83 NW18      30.18R
6HR MIN TEMP:  50; 6HR MAX TEMP:  51;

SAINT CLOUD    CLOUDY    52  50  93 NW14G20   30.12R
6HR MIN TEMP:  51; 6HR MAX TEMP:  54; 6HR PCP: TRACE;

MINNEAPOLIS    CLOUDY    55  47  74 NW13G21   30.11R
6HR MIN TEMP:  54; 6HR MAX TEMP:  57;

$$

  *****  WEATHER ACROSS SOUTH DAKOTA  *****

CITY           SKY/WX    TMP DP  RH WIND       PRES   REMARKS
SIOUX FALLS    FAIR      50  46  86 W9        30.29R
6HR MIN TEMP:  47; 6HR MAX TEMP:  52;

BROOKINGS      FAIR      49  46  90 NW7       30.27R
WATERTOWN      FAIR      50  47  89 NW12      30.26R
6HR MIN TEMP:  48; 6HR MAX TEMP:  53;

HURON          FAIR      47  43  86 W8        30.30S
6HR MIN TEMP:  43; 6HR MAX TEMP:  47;

SISSETON         N/A     53  47  79 NW9       30.24R
ABERDEEN       FAIR      47  42  83 W3        30.29R
6HR MIN TEMP:  41; 6HR MAX TEMP:  50;

MITCHELL       NOT AVBL
PIERRE         NOT AVBL
MOBRIDGE       FAIR      45  39  79 CALM      30.28S
RAPID CITY     FAIR      45  33  63 S5        30.35F
6HR MIN TEMP:  40; 6HR MAX TEMP:  54;

$$

  *****  SOME WEATHER IN NEARBY STATES *****

CITY           SKY/WX    TMP DP  RH WIND       PRES   REMARKS
GLASGOW MT     FAIR      42  34  73 NW5       30.26R
6HR MIN TEMP:  42; 6HR MAX TEMP:  55;

GREAT FALLS MT FAIR      47  40  76 S5        30.32S
6HR MIN TEMP:  44; 6HR MAX TEMP:  56;

CHEYENNE WY    FAIR      48  38  68 N6        30.40S
6HR MIN TEMP:  48; 6HR MAX TEMP:  54;

SCOTTSBLUFF NE LGT RAIN  54  39  57 NE7       30.38R
6HR MIN TEMP:  54; 6HR MAX TEMP:  60; 6HR PCP: TRACE;

OMAHA NE       FAIR      57  46  66 CALM      30.29R
6HR MIN TEMP:  52; 6HR MAX TEMP:  57;

DES MOINES IA  FAIR      55  45  68 NW9       30.23R
6HR MIN TEMP:  51; 6HR MAX TEMP:  60;

DAVENPORT IA   FAIR      54  49  83 W8        30.15S
6HR MIN TEMP:  52; 6HR MAX TEMP:  56;

CHICAGO IL     FAIR      57  48  72 W10       30.08R
6HR MIN TEMP:  54; 6HR MAX TEMP:  59;

EAU CLAIRE WI  CLOUDY    53  50  89 W8        30.06R
6HR MIN TEMP:  50; 6HR MAX TEMP:  53;

LA CROSSE WI   PTSUNNY   59  49  69 W8        30.09S
6HR MIN TEMP:  55; 6HR MAX TEMP:  60;

$$

  *****  SOME NATIONAL WEATHER *****

CITY           SKY/WX    TMP DP  RH WIND       PRES   REMARKS
LA GUARDIA NY  PTSUNNY   73  60  63 CALM      29.98R
6HR MIN TEMP:  70; 6HR MAX TEMP:  74;

RALEIGH NC     PTSUNNY   74  72  93 VRB3      30.06R
6HR MIN TEMP:  69; 6HR MAX TEMP:  74; 6HR PCP: TRACE;

ATLANTA GA     PTSUNNY   68  65  90 NW14      30.12R
6HR MIN TEMP:  68; 6HR MAX TEMP:  72;

NEW ORLEANS LA PTSUNNY   77  76  96 CALM      30.10R
6HR MIN TEMP:  73; 6HR MAX TEMP:  77;

OKLAHOMA CITY  FAIR      62  55  77 S3        30.24F
6HR MIN TEMP:  62; 6HR MAX TEMP:  69;

ALBUQUERQUE NM FAIR      66  55  67 E7        30.29R
6HR MIN TEMP:  66; 6HR MAX TEMP:  72;

SALT LAKE CITY FAIR      64  42  44 S5        30.17R
6HR MIN TEMP:  63; 6HR MAX TEMP:  72;

LOS ANGELES CA FAIR      63  61  93 W3        29.87R
6HR MIN TEMP:  63; 6HR MAX TEMP:  64;

BOISE ID       FAIR



USA.gov is the U.S. government's official web portal to all federal, state and local government web resources and services.